This is the latest recevied weather packets stored in our database for station/object K1RFS. If no packets are shown the sender has not sent any weather packets the latest 10 day(s).
| Time | Temp. | Humidity | Pressure | Rain* | Wind** | Luminosity | Snow |
|---|---|---|---|---|---|---|---|
| 1777692392 | 12.78° C | 34% | 1004.9 hPa | 0 mm | - | 0 W/m² | - |
| 1777692089 | 12.78° C | 33% | 1004.8 hPa | 0 mm | - | 0 W/m² | - |
| 1777691787 | 12.78° C | 33% | 1004.8 hPa | 0 mm | - | 0 W/m² | - |
| 1777691484 | 12.78° C | 33% | 1004.6 hPa | 0 mm | - | 0 W/m² | - |
| 1777691183 | 12.78° C | 34% | 1004.6 hPa | 0 mm | - | 0 W/m² | - |
| 1777690881 | 12.78° C | 33% | 1004.5 hPa | 0 mm | - | 0 W/m² | - |
| 1777690578 | 12.78° C | 34% | 1004.5 hPa | 0 mm | - | 0 W/m² | - |
| 1777690276 | 12.78° C | 34% | 1004.4 hPa | 0 mm | - | 0 W/m² | - |
| 1777689973 | 13.33° C | 33% | 1004.4 hPa | 0 mm | - | 0 W/m² | - |
| 1777689671 | 13.33° C | 33% | 1004.2 hPa | 0 mm | - | 0 W/m² | - |
| 1777689369 | 13.33° C | 33% | 1004.4 hPa | 0 mm | - | 0 W/m² | - |
| 1777689066 | 13.89° C | 33% | 1004.4 hPa | 0 mm | - | 1 W/m² | - |
| 1777688762 | 13.89° C | 32% | 1004.2 hPa | 0 mm | - | 2 W/m² | - |
| 1777688460 | 14.44° C | 31% | 1004.2 hPa | 0 mm | - | 3 W/m² | - |
| 1777688157 | 15° C | 29% | 1004.4 hPa | 0 mm | - | 5 W/m² | - |
| 1777687854 | 15° C | 29% | 1004.2 hPa | 0 mm | - | 8 W/m² | - |
| 1777687552 | 15° C | 28% | 1004.4 hPa | 0 mm | - | 10 W/m² | - |
| 1777687248 | 15.56° C | 27% | 1004.1 hPa | 0 mm | - | 14 W/m² | - |
| 1777686946 | 16.11° C | 27% | 1004.2 hPa | 0 mm | - | 31 W/m² | - |
| 1777686642 | 16.11° C | 27% | 1004.4 hPa | 0 mm | - | 39 W/m² | - |
| 1777686339 | 16.67° C | 26% | 1004 hPa | 0 mm | - | 47 W/m² | - |
| 1777686037 | 16.67° C | 26% | 1004.1 hPa | 0 mm | - | 55 W/m² | - |
| 1777685732 | 16.67° C | 26% | 1004.2 hPa | 0 mm | - | 65 W/m² | - |
| 1777685428 | 16.67° C | 26% | 1004.1 hPa | 0 mm | - | 74 W/m² | - |
| 1777685126 | 16.67° C | 26% | 1003.9 hPa | 0 mm | - | 83 W/m² | - |
* Rain latest hour (hover to see other rain measurements)
** Current wind speed in m/s (hover to see current wind gust speed)